When you browse on this site, cookies collect data to enhance your experience and personalize the content and advertising you see.
Visit our Privacy Policy to learn more. By continuing to use the site, you agree to this use of cookies and data.
  • In Hungary
  • List of Countries
  • For 7 days
  • Water Temperature
  • Weather Map
  • News
  • Weather Widgets
  • user-avatar
    Login

    Hourly Weather Adria

    Today, 25 August, Sunday

    Time Temperature Precipitation Wind Pressure Humidity
    00:00 +24°C° 0.1 mm 2 mps 763 mmHg 82%
    01:00 +24°C° 0.1 mm 2 mps 763 mmHg 82%
    02:00 +23°C° 0 mm 2 mps 763 mmHg 82%
    03:00 +23°C° 0 mm 2 mps 763 mmHg 82%
    04:00 +23°C° 0 mm 1 mps 763 mmHg 82%
    05:00 +23°C° 0 mm 1 mps 763 mmHg 81%
    06:00 +24°C° 0 mm 2 mps 763 mmHg 79%
    07:00 +24°C° 0 mm 2 mps 763 mmHg 77%
    08:00 +26°C° 0 mm 2 mps 763 mmHg 71%
    09:00 +27°C° 0 mm 2 mps 763 mmHg 65%
    10:00 +29°C° 0 mm 2 mps 763 mmHg 59%
    11:00 +30°C° 0 mm 2 mps 763 mmHg 55%
    12:00 +31°C° 0 mm 2 mps 763 mmHg 52%
    13:00 +32°C° 0 mm 1 mps 763 mmHg 48%
    14:00 +32°C° 0 mm 1 mps 762 mmHg 48%
    15:00 +32°C° 0 mm 1 mps 762 mmHg 48%
    16:00 +32°C° 0 mm 1 mps 762 mmHg 47%
    17:00 +30°C° 0 mm 1 mps 762 mmHg 53%
    18:00 +29°C° 0 mm 1 mps 762 mmHg 58%
    19:00 +27°C° 0 mm 1 mps 762 mmHg 64%
    20:00 +26°C° 0 mm 1 mps 762 mmHg 65%
    21:00 +24°C° 0 mm 0 mps 763 mmHg 66%
    22:00 +23°C° 0 mm 0 mps 763 mmHg 68%
    23:00 +25°C° 0 mm 1 mps 763 mmHg 69%

    Tomorrow, 26 August, Monday

    Time Temperature Precipitation Wind Pressure Humidity
    00:00 +24°C° 0 mm 1 mps 763 mmHg 70%
    01:00 +24°C° 0 mm 2 mps 763 mmHg 71%
    02:00 +24°C° 0 mm 2 mps 762 mmHg 72%
    03:00 +23°C° 0 mm 2 mps 762 mmHg 74%
    04:00 +23°C° 0 mm 2 mps 762 mmHg 75%
    05:00 +24°C° 0 mm 2 mps 762 mmHg 73%
    06:00 +25°C° 0 mm 1 mps 762 mmHg 71%
    07:00 +25°C° 0 mm 1 mps 762 mmHg 69%
    08:00 +27°C° 0 mm 1 mps 762 mmHg 63%
    09:00 +29°C° 0 mm 1 mps 762 mmHg 57%
    10:00 +30°C° 0 mm 1 mps 762 mmHg 51%
    11:00 +31°C° 0 mm 2 mps 762 mmHg 48%
    12:00 +32°C° 0 mm 2 mps 762 mmHg 45%
    13:00 +34°C° 0 mm 2 mps 762 mmHg 42%
    14:00 +34°C° 0 mm 2 mps 762 mmHg 42%
    15:00 +34°C° 0 mm 2 mps 761 mmHg 43%
    16:00 +34°C° 0 mm 2 mps 761 mmHg 43%
    17:00 +31°C° 0 mm 2 mps 761 mmHg 49%
    18:00 +29°C° 0 mm 2 mps 761 mmHg 55%
    19:00 +28°C° 0 mm 1 mps 761 mmHg 60%
    20:00 +27°C° 0 mm 1 mps 762 mmHg 63%
    21:00 +26°C° 0 mm 1 mps 762 mmHg 65%
    22:00 +25°C° 0 mm 1 mps 762 mmHg 67%
    23:00 +25°C° 0 mm 1 mps 762 mmHg 69%

    Day after tomorrow, 27 August, Tuesday

    Time Temperature Precipitation Wind Pressure Humidity
    00:00 +25°C° 0 mm 1 mps 762 mmHg 70%
    01:00 +22°C° 0 mm 0 mps 762 mmHg 72%
    02:00 +24°C° 0 mm 1 mps 762 mmHg 72%
    03:00 +24°C° 0 mm 1 mps 762 mmHg 73%
    04:00 +23°C° 0 mm 1 mps 762 mmHg 73%
    05:00 +24°C° 0 mm 1 mps 762 mmHg 72%
    06:00 +25°C° 0 mm 1 mps 762 mmHg 71%
    07:00 +25°C° 0 mm 1 mps 762 mmHg 70%
    08:00 +27°C° 0 mm 1 mps 762 mmHg 64%
    09:00 +29°C° 0 mm 1 mps 763 mmHg 58%
    10:00 +31°C° 0 mm 1 mps 763 mmHg 52%
    11:00 +32°C° 0 mm 1 mps 763 mmHg 49%
    12:00 +33°C° 0 mm 1 mps 763 mmHg 46%
    13:00 +34°C° 0 mm 1 mps 762 mmHg 43%
    14:00 +34°C° 0 mm 1 mps 762 mmHg 42%
    15:00 +35°C° 0 mm 2 mps 762 mmHg 42%
    16:00 +35°C° 0 mm 2 mps 761 mmHg 42%
    17:00 +32°C° 0 mm 2 mps 762 mmHg 49%
    18:00 +30°C° 0 mm 2 mps 762 mmHg 55%
    19:00 +28°C° 0 mm 2 mps 762 mmHg 62%
    20:00 +27°C° 0 mm 2 mps 762 mmHg 64%
    21:00 +26°C° 0 mm 1 mps 762 mmHg 66%
    22:00 +26°C° 0 mm 1 mps 763 mmHg 68%
    23:00 +25°C° 0 mm 1 mps 762 mmHg 69%

    28 August, Wednesday

    Time Temperature Precipitation Wind Pressure Humidity
    00:00 +25°C° 0 mm 1 mps 762 mmHg 70%
    01:00 +25°C° 0 mm 1 mps 762 mmHg 71%
    02:00 +24°C° 0 mm 1 mps 762 mmHg 72%
    03:00 +24°C° 0 mm 1 mps 762 mmHg 73%
    04:00 +24°C° 0 mm 2 mps 762 mmHg 74%
    05:00 +24°C° 0 mm 2 mps 762 mmHg 73%
    06:00 +25°C° 0 mm 1 mps 762 mmHg 72%
    07:00 +26°C° 0 mm 1 mps 762 mmHg 72%
    08:00 +27°C° 0 mm 1 mps 762 mmHg 65%
    09:00 +29°C° 0 mm 1 mps 762 mmHg 58%
    10:00 +31°C° 0 mm 1 mps 762 mmHg 51%
    11:00 +32°C° 0 mm 1 mps 761 mmHg 48%
    12:00 +34°C° 0 mm 2 mps 761 mmHg 45%
    13:00 +35°C° 0 mm 2 mps 761 mmHg 41%
    14:00 +34°C° 0 mm 2 mps 760 mmHg 43%
    15:00 +34°C° 0 mm 3 mps 760 mmHg 45%
    16:00 +33°C° 0 mm 3 mps 760 mmHg 47%
    17:00 +30°C° 0.3 mm 3 mps 760 mmHg 55%
    18:00 +28°C° 0.3 mm 2 mps 760 mmHg 62%
    19:00 +26°C° 0.3 mm 2 mps 760 mmHg 70%
    20:00 +25°C° 0.1 mm 2 mps 760 mmHg 70%
    21:00 +25°C° 0.1 mm 1 mps 760 mmHg 70%
    22:00 +24°C° 0.1 mm 1 mps 761 mmHg 70%
    23:00 +24°C° 0 mm 1 mps 760 mmHg 72%

    29 August, Thursday

    Time Temperature Precipitation Wind Pressure Humidity
    00:00 +22°C° 0 mm 0 mps 760 mmHg 73%
    01:00 +22°C° 0 mm 0 mps 760 mmHg 74%
    02:00 +21°C° 0 mm 0 mps 760 mmHg 75%
    03:00 +21°C° 0 mm 0 mps 760 mmHg 77%
    04:00 +23°C° 0 mm 1 mps 760 mmHg 78%
    05:00 +23°C° 0 mm 1 mps 760 mmHg 76%
    06:00 +24°C° 0 mm 1 mps 760 mmHg 75%
    07:00 +24°C° 0 mm 1 mps 760 mmHg 74%
    08:00 +26°C° 0 mm 1 mps 760 mmHg 69%
    09:00 +28°C° 0 mm 1 mps 760 mmHg 63%
    10:00 +29°C° 0 mm 1 mps 760 mmHg 58%
    11:00 +30°C° 0 mm 1 mps 760 mmHg 53%
    12:00 +32°C° 0 mm 1 mps 760 mmHg 49%
    13:00 +33°C° 0 mm 1 mps 760 mmHg 44%
    14:00 +33°C° 0 mm 1 mps 759 mmHg 44%
    15:00 +34°C° 0 mm 2 mps 759 mmHg 44%
    16:00 +34°C° 0 mm 2 mps 759 mmHg 44%
    17:00 +31°C° 0.2 mm 2 mps 759 mmHg 52%
    18:00 +29°C° 0.2 mm 2 mps 759 mmHg 59%
    19:00 +27°C° 0.2 mm 2 mps 759 mmHg 67%
    20:00 +26°C° 0.2 mm 2 mps 760 mmHg 69%
    21:00 +26°C° 0.2 mm 1 mps 760 mmHg 71%
    22:00 +25°C° 0.2 mm 1 mps 761 mmHg 73%
    23:00 +25°C° 0.1 mm 1 mps 761 mmHg 74%

    30 August, Friday

    Time Temperature Precipitation Wind Pressure Humidity
    00:00 +25°C° 0.1 mm 1 mps 761 mmHg 74%
    01:00 +24°C° 0.1 mm 1 mps 760 mmHg 75%
    02:00 +24°C° 0 mm 1 mps 760 mmHg 76%
    03:00 +24°C° 0 mm 1 mps 761 mmHg 77%
    04:00 +24°C° 0 mm 1 mps 761 mmHg 78%
    05:00 +24°C° 0.1 mm 1 mps 761 mmHg 76%
    06:00 +25°C° 0.1 mm 1 mps 761 mmHg 75%
    07:00 +25°C° 0.1 mm 1 mps 761 mmHg 74%
    08:00 +27°C° 0 mm 1 mps 761 mmHg 68%
    09:00 +28°C° 0 mm 1 mps 761 mmHg 62%
    10:00 +30°C° 0 mm 1 mps 761 mmHg 56%
    11:00 +31°C° 0 mm 1 mps 761 mmHg 51%
    12:00 +33°C° 0 mm 1 mps 761 mmHg 47%
    13:00 +34°C° 0 mm 1 mps 761 mmHg 42%
    14:00 +34°C° 0 mm 1 mps 761 mmHg 41%
    15:00 +34°C° 0 mm 1 mps 760 mmHg 39%
    16:00 +35°C° 0 mm 2 mps 760 mmHg 37%
    17:00 +32°C° 0 mm 2 mps 760 mmHg 42%
    18:00 +30°C° 0 mm 2 mps 760 mmHg 48%
    19:00 +28°C° 0 mm 2 mps 760 mmHg 53%
    20:00 +27°C° 0 mm 2 mps 761 mmHg 55%
    21:00 +27°C° 0 mm 1 mps 761 mmHg 57%
    22:00 +26°C° 0 mm 1 mps 762 mmHg 59%
    23:00 +25°C° 0 mm 1 mps 761 mmHg 60%
    Show more